{"data":{"norad_id":54852,"epoch":"2026-09-20T22:12:39.578112Z","epoch_age_seconds":55919,"freshness":"FRESH","line1":"1 54852U 22177AJ  26263.92545808  .00000548  00000+0  29439-4 0  9990","line2":"2 54852  43.0031  98.6330 0001197 253.5662 106.5058 15.27568919206953","mean_motion":15.27568919,"eccentricity":0.0001197,"inclination_deg":43.0031,"raan_deg":98.633,"arg_perigee_deg":253.5662,"mean_anomaly_deg":106.5058,"bstar":2.9439e-5,"rev_number":20695,"period_min":94.267432525576,"perigee_km":482.26098879317,"apogee_km":483.90356468802,"semimajor_km":6861.2192767406,"source":"CELESTRAK","updated_at":"2026-09-21T09:00:33.138585Z"}}